Terminal Aerodrome Forecast
Issued by NWS Wilmington, OH

Home | Current Version | Previous Version | Text Only | Print | Product List | Glossary On
Versions: 1 2 3 4 5 6 7 8 9 10 11 12 13 14 15 16 17
000
FTUS41 KILN 211100
TAFDAY
TAF
KDAY 211132Z 2112/2212 00000KT 5SM BR FEW025 SCT060
     FM211400 12005KT P6SM FEW022 SCT250
     FM221000 13005KT P6SM BKN015=

USA.gov is the U.S. government's official web portal to all federal, state and local government web resources and services.